User: anonymous   Login
Location: Unspecified
(0.0000°N, 0.0000°E)
Time: 19:42:25
(UTC+00:00)
Language:

GSAT 7 - Orbit

View from above orbital plane
View from above orbital plane
View from above satellite
View from above satellite

Ground track
Ground track

The orbit data is extracted from the following two-line orbital elements,

1 39234U 13044B   15181.00857714 -.00000075  00000-0  00000+0 0  9993
2 39234 000.1170 091.9059 0006949 187.8069 075.1360 01.00272374  6736
Epoch (UTC): 30 June 2015 00:12:21
Eccentricity: 0.0006949
inclination: 0.1170°
perigee height: 35757 km
apogee height: 35815 km
right ascension of ascending node: 91.9059°
argument of perigee: 187.8069°
revolutions per day: 1.00272374
mean anomaly at epoch: 75.1360°
orbit number at epoch: 673

The dashed part of the orbit path shows where the satellite is in the earth's shadow,  

DLR